Location: N�rnberg
(49.4489°N, 11.0797°E)
Time: 12:09:33
(UTC+01:00)

ISS - Pass Details

Date: 08 January 2018
Orbit: 402 x 407 km, 51.6° (Epoch: 19 January)

Event Time Altitude Azimuth Distance (km) Brightness Sun altitude
Exits shadow 05:06:15 16° 72° (ENE) 1,179 -0.8 -28.9°
Drops below altitude 10° 05:06:59 10° 75° (ENE) 1,470 -0.1 -28.8°
Sets 05:09:06 0° 80° (E) 2,332 1.2 -28.5°
